GORIZONT 23 [-]

Last updated on Dec. 5, 2020, 6:14 a.m. UTC

1 21533U 91046A   20339.67200382 -.00000133  00000-0  00000-0 0  9997
2 21533  15.1512 357.0214 0006688 313.6152 193.2952  0.98910402 26701
UTC
Height (km)
Latitude
Longitude
Inclination
Orbital Period
UTC large
Height (km)
Speed (km/s)
/
Latitude / Longitude
Inclination (degrees)
Orbital Period (minutes)
Azimuth
Elevation
Range (km)
Doppler Factor
iOS Compass Heading
iOS Angle

Next 30 passes for location: Hong Kong

Rise time Rise Azimuth (degrees) Set time Set Azimuth (degrees) Duration Max altitude (degrees)

No matching passes for this satellites